Wind_Speed
14 14 14 14 14 14 13 14 14 14 15 14 15 15 14 14 14 14 14 14 15 15 16 16 15 15 15 15 15 14 14 14 14 14 13 13 13 13 13 13 13 13 13
14 14 15 14 14 14 14 14 14 14 14 14 14 15 15 15 15 15 15 15 15 16 16 16 16 15 15 15 14 14 14 14 14 14 13 13 13 13 13 14 14 13 14
14 15 14 14 14 14 14 14 14 14 14 14 15 15 15 15 15 15 15 16 16 16 16 16 15 14 14 15 14 14 14 14 14 14 14 13 13 13 14 14 13 14 14
14 14 14 14 14 14 14 14 14 14 14 14 15 15 15 15 15 15 15 16 16 16 15 15 15 14 15 15 15 15 15 15 15 14 14 14 14 13 13 13 14 13 13
13 14 14 14 14 14 13 14 14 15 15 14 14 14 15 15 16 16 16 16 16 15 14 14 14 15 15 15 16 16 15 15 15 15 15 15 15 14 14 13 14 14 13
13 13 13 13 14 14 14 15 15 15 15 14 14 14 15 15 16 17 17 16 16 16 15 15 15 16 16 16 17 17 17 16 16 16 16 15 15 15 14 14 14 14 14
13 13 14 14 15 15 15 16 16 16 15 15 16 16 15 16 16 17 17 17 17 17 17 17 16 17 17 17 17 17 17 17 16 16 16 16 16 15 15 15 14 14 15
13 14 14 15 15 16 16 16 16 17 17 17 17 17 17 17 17 18 18 19 18 18 18 18 18 18 18 17 17 18 18 18 18 17 17 17 17 16 16 15 16 16 16
14 14 14 15 16 16 16 16 16 17 17 17 17 17 17 17 18 18 18 19 19 19 19 19 19 18 18 19 19 19 19 19 19 19 18 18 17 17 17 17 17 17 18
14 14 14 14 15 15 16 16 16 16 16 17 17 18 18 18 18 18 18 19 19 19 20 19 19 19 20 20 20 19 19 19 20 19 18 18 18 18 18 18 18 18 18
15 15 15 15 15 16 16 16 16 17 17 17 17 17 18 18 18 18 18 19 19 19 20 20 19 19 19 20 20 19 19 19 19 19 19 19 19 18 19 19 19 18 18
16 16 16 16 17 17 17 17 17 17 17 17 17 17 18 18 19 19 19 19 19 20 20 20 20 20 20 20 20 19 19 19 19 19 19 19 19 19 20 20 20 20 20
17 17 17 17 18 18 18 18 18 18 17 18 18 18 18 18 18 19 19 20 20 20 20 20 20 20 20 20 20 20 21 21 20 20 20 20 20 20 19 20 20 20 20
18 18 18 19 19 19 19 19 19 18 18 18 19 19 19 19 19 19 20 20 20 20 20 20 21 20 20 20 20 20 21 20 20 20 20 20 20 20 19 19 20 20 20
18 19 19 19 19 19 19 19 19 19 19 20 20 20 20 20 20 20 20 20 20 20 20 21 21 21 20 20 20 20 20 20 20 20 20 20 20 20 20 20 20 21 21
19 20 20 19 19 20 20 20 20 20 20 20 20 20 20 20 20 19 20 20 20 20 20 21 21 21 20 20 21 21 21 21 21 21 21 22 22 22 22 22 21 21 21
20 20 20 20 20 20 20 20 20 20 20 21 20 20 20 20 20 20 20 20 19 19 20 21 21 21 21 21 22 22 21 22 22 21 22 22 23 23 23 23 23 22 22
21 21 20 20 20 20 20 19 20 20 20 20 20 20 20 19 19 20 19 19 20 20 21 21 21 21 22 22 23 22 22 23 23 23 23 23 23 23 22 22 22 22 22
21 21 21 20 20 20 20 20 20 20 20 20 20 20 19 19 19 19 19 20 20 20 21 21 22 22 22 22 22 22 23 23 23 23 24 24 23 23 23 23 23 23 23
20 20 20 20 21 21 20 20 20 21 20 20 20 20 20 19 19 20 20 20 20 21 21 21 22 22 23 23 23 23 24 24 25 25 25 25 25 24 25 25 25 24 24
21 21 20 20 21 21 21 21 21 21 21 20 20 20 20 20 20 20 20 21 21 21 21 22 22 22 23 23 24 25 25 26 26 26 26 26 26 26 27 26 26 26 26
22 22 21 21 21 22 22 22 22 22 22 21 21 21 21 21 21 21 21 21 21 21 21 22 22 23 24 25 25 25 26 26 26 27 27 27 27 27 27 27 27 27 27
23 23 23 22 22 22 22 22 22 22 22 22 22 22 22 21 22 22 22 22 22 22 22 22 23 24 24 25 25 26 26 27 27 28 28 28 28 28 28 28 27 27 27
24 24 24 23 23 23 23 23 22 22 22 22 22 23 23 22 22 23 22 22 22 23 23 23 24 24 25 25 26 27 27 27 28 28 27 27 27 27 28 28 28 27 28
25 25 25 24 23 23 23 23 23 23 23 23 23 23 24 24 24 23 23 23 23 23 24 24 25 25 25 26 27 27 27 27 27 27 27 27 27 27 28 28 28 28 28
26 25 25 25 24 24 24 24 24 24 24 24 23 24 24 24 24 23 23 24 24 24 25 25 25 25 26 26 27 27 27 27 27 27 27 27 28 28 28 28 28 28 28
Wind_Direction
287 287 286 286 286 285 285 285 283 281 280 278 277 275 273 273 271 272 271 268 262 261 260 260 266 267 266 267 271 273 274 275 276 277 277 276 277 279 279 278 277 274 271
284 287 287 286 286 286 286 285 284 281 279 278 277 276 273 272 273 273 272 269 266 264 264 262 263 264 264 268 270 271 272 273 274 275 275 276 277 279 281 280 277 275 274
287 289 287 288 288 288 287 285 284 283 283 281 279 278 274 274 274 273 271 270 267 269 267 264 264 264 265 267 269 270 270 271 273 273 275 275 277 279 281 282 281 278 276
289 288 287 287 288 288 286 285 285 285 285 284 282 280 277 276 275 273 271 271 270 269 264 260 261 264 266 267 268 269 269 269 272 272 273 274 275 278 280 282 281 280 277
290 289 287 290 292 290 287 286 285 286 286 285 283 280 277 277 277 273 271 271 269 266 264 263 264 263 264 265 268 268 269 269 269 273 275 273 274 276 279 282 282 280 277
289 289 291 294 295 289 285 285 285 286 286 284 284 282 279 279 277 273 270 268 266 266 266 266 267 266 266 266 269 269 268 269 269 272 274 274 275 275 277 279 280 279 276
290 290 292 293 292 289 287 286 284 284 284 284 283 281 279 277 276 273 269 267 266 265 267 267 267 268 269 269 270 270 269 269 269 271 273 274 275 274 276 277 279 280 278
293 292 293 293 291 291 288 286 284 283 282 282 282 280 278 276 275 273 271 269 268 268 268 268 268 269 269 270 270 270 270 270 271 273 273 273 273 273 273 275 278 280 278
296 295 295 295 292 289 286 285 285 285 284 283 282 280 279 277 276 274 271 268 266 266 266 268 269 270 269 270 271 270 271 271 273 274 272 270 272 272 272 276 278 280 279
297 297 297 298 295 293 289 287 286 288 288 286 283 282 280 278 276 275 272 269 267 267 266 266 268 268 267 268 269 269 270 272 273 272 271 272 272 272 273 276 278 279 279
294 295 296 296 298 296 291 288 288 289 289 288 285 283 281 279 277 275 274 271 269 268 266 267 267 267 268 268 267 268 271 274 276 274 273 273 272 272 274 277 279 280 279
293 295 297 297 297 296 292 289 289 289 289 287 286 285 282 281 280 276 275 272 272 271 270 270 270 268 267 268 269 269 270 272 273 273 274 274 273 274 276 279 280 279 280
293 295 298 298 297 296 294 291 290 289 289 288 287 286 283 282 281 278 276 274 274 274 273 273 272 269 268 269 268 269 270 272 272 273 273 273 273 276 279 280 280 281 281
293 294 296 297 296 294 294 292 289 288 288 288 288 287 283 282 281 279 279 277 276 276 273 274 273 269 269 268 269 271 269 270 272 273 273 273 273 277 279 280 280 281 281
292 292 294 295 296 294 292 292 290 289 289 289 289 288 287 283 280 278 278 278 276 275 274 275 273 270 267 266 268 270 269 270 272 272 271 274 276 277 278 280 280 279 280
289 290 292 293 294 294 291 291 291 290 289 289 289 288 288 283 280 279 279 278 278 276 275 275 273 270 268 268 269 270 269 270 273 273 273 275 277 277 277 277 278 279 278
286 289 290 291 293 294 293 291 290 292 290 288 288 289 289 285 281 280 280 278 278 277 277 275 275 272 270 269 269 270 270 270 271 272 273 276 275 275 277 276 275 276 276
286 289 291 292 293 294 293 292 291 292 293 291 290 291 290 287 283 282 281 278 277 277 277 275 275 274 271 270 269 269 272 272 271 271 273 275 274 275 277 276 274 274 275
286 288 290 291 291 291 291 290 292 294 295 294 290 289 289 287 285 283 282 280 278 279 279 277 276 274 274 273 271 271 272 273 273 272 273 273 274 273 274 274 273 273 273
285 287 289 290 290 289 288 288 290 293 294 293 289 287 287 287 286 284 283 282 281 281 279 277 277 276 275 275 273 272 273 273 273 272 273 272 272 271 273 275 274 273 273
284 286 288 289 290 289 287 287 289 291 292 292 290 287 286 285 285 284 284 283 283 281 279 278 277 276 276 276 275 274 274 274 273 272 271 271 270 271 273 274 274 274 273
284 286 288 288 289 289 288 287 288 290 292 293 292 289 286 284 284 284 284 283 283 281 281 279 279 279 278 278 277 275 274 275 274 273 272 271 270 271 272 273 274 273 273
283 286 287 287 288 287 288 288 288 289 291 291 291 290 288 285 285 285 284 284 283 282 282 282 282 282 281 280 280 278 276 275 274 274 273 272 272 271 271 271 271 272 273
283 285 286 285 286 286 287 288 289 290 290 291 291 290 290 288 286 285 283 282 283 283 284 283 283 283 282 281 280 280 279 277 276 274 273 273 272 272 271 270 270 272 273
280 283 285 284 284 285 285 287 289 289 291 292 293 291 289 290 288 284 283 283 282 283 284 285 284 284 284 283 283 282 280 279 278 275 273 272 272 273 273 272 272 272 274
279 280 282 282 283 284 284 285 286 286 288 290 291 290 290 288 287 285 283 283 283 283 284 285 286 286 287 285 283 281 280 279 278 276 274 274 274 274 274 273 273 273 274
Height
5863 5862 5861 5860 5859 5858 5857 5856 5855 5854 5853 5853 5852 5851 5851 5850 5850 5849 5849 5848 5848 5848 5848 5848 5848 5848 5848 5847 5847 5846 5846 5845 5845 5844 5844 5843 5842 5841 5840 5840 5839 5838 5838
5860 5859 5858 5857 5855 5854 5854 5853 5852 5851 5850 5849 5848 5848 5847 5846 5846 5846 5845 5845 5844 5844 5844 5844 5844 5844 5844 5844 5843 5843 5842 5842 5841 5841 5840 5840 5840 5838 5837 5836 5836 5835 5834
5857 5856 5855 5853 5852 5851 5850 5849 5848 5848 5847 5846 5845 5844 5843 5842 5842 5842 5841 5841 5841 5840 5840 5840 5840 5840 5840 5840 5839 5839 5839 5838 5838 5837 5837 5837 5836 5835 5834 5833 5832 5831 5831
5854 5853 5852 5850 5849 5848 5847 5845 5844 5844 5843 5842 5841 5840 5840 5839 5838 5838 5838 5837 5837 5837 5836 5836 5836 5836 5836 5836 5836 5835 5835 5835 5834 5833 5833 5833 5832 5832 5831 5830 5829 5828 5827
5851 5850 5848 5847 5846 5845 5843 5842 5841 5840 5839 5838 5837 5836 5836 5835 5834 5834 5834 5833 5833 5833 5832 5832 5832 5832 5832 5832 5832 5831 5831 5831 5830 5830 5829 5829 5828 5828 5827 5826 5826 5824 5824
5848 5846 5845 5844 5843 5841 5840 5839 5837 5836 5835 5834 5833 5832 5832 5831 5830 5830 5829 5829 5829 5829 5828 5828 5828 5828 5828 5828 5827 5827 5827 5826 5826 5826 5825 5825 5824 5823 5823 5823 5822 5821 5820
5844 5843 5842 5840 5839 5837 5836 5835 5833 5832 5831 5830 5829 5828 5827 5827 5826 5825 5825 5825 5825 5824 5824 5824 5824 5824 5823 5823 5823 5823 5822 5822 5821 5821 5821 5820 5820 5819 5819 5818 5818 5817 5816
5841 5839 5837 5836 5834 5833 5832 5830 5829 5828 5827 5826 5824 5824 5823 5822 5821 5821 5820 5820 5820 5820 5820 5819 5819 5819 5819 5818 5818 5818 5818 5817 5817 5817 5816 5816 5816 5815 5815 5814 5813 5813 5812
5837 5835 5834 5832 5830 5829 5827 5826 5824 5823 5822 5820 5820 5819 5818 5817 5817 5816 5815 5815 5815 5815 5815 5815 5814 5814 5814 5814 5814 5814 5813 5813 5812 5812 5811 5811 5811 5811 5810 5809 5809 5808 5807
5833 5831 5830 5828 5826 5824 5823 5821 5820 5818 5817 5816 5814 5813 5813 5812 5811 5811 5810 5810 5810 5810 5809 5809 5809 5809 5809 5809 5809 5809 5808 5808 5807 5807 5806 5806 5806 5805 5805 5804 5803 5802 5802
5829 5827 5825 5824 5822 5820 5818 5816 5815 5813 5812 5811 5809 5808 5807 5807 5806 5806 5805 5805 5805 5804 5804 5804 5804 5804 5803 5803 5803 5803 5803 5803 5802 5802 5801 5801 5800 5800 5799 5799 5798 5797 5796
5824 5822 5821 5819 5817 5815 5813 5811 5810 5809 5807 5806 5804 5803 5802 5801 5801 5800 5800 5799 5799 5799 5798 5798 5798 5798 5798 5798 5798 5798 5798 5797 5797 5797 5796 5796 5795 5794 5794 5793 5792 5791 5790
5819 5818 5816 5814 5812 5810 5808 5807 5805 5804 5802 5801 5799 5798 5797 5796 5795 5795 5794 5794 5793 5793 5793 5792 5792 5792 5792 5792 5792 5792 5792 5792 5791 5791 5791 5790 5790 5789 5788 5787 5787 5785 5784
5815 5813 5811 5809 5807 5805 5803 5801 5800 5798 5797 5796 5794 5793 5791 5790 5790 5789 5788 5788 5788 5787 5787 5786 5786 5786 5786 5786 5786 5786 5786 5786 5786 5785 5785 5784 5784 5783 5782 5782 5781 5780 5778
5810 5808 5806 5804 5802 5800 5798 5796 5794 5793 5792 5790 5789 5787 5786 5784 5783 5783 5782 5782 5782 5781 5781 5780 5780 5780 5780 5780 5780 5780 5780 5780 5779 5779 5779 5778 5778 5777 5776 5776 5775 5774 5772
5804 5802 5800 5798 5796 5794 5792 5791 5789 5787 5786 5784 5783 5781 5780 5778 5777 5777 5776 5776 5775 5775 5775 5774 5774 5773 5773 5773 5773 5773 5773 5773 5773 5773 5773 5772 5771 5771 5770 5769 5768 5767 5766
5799 5797 5795 5793 5791 5789 5787 5785 5783 5782 5780 5778 5777 5775 5774 5772 5771 5771 5770 5770 5770 5769 5769 5768 5768 5767 5767 5767 5767 5767 5767 5767 5767 5766 5766 5765 5764 5764 5763 5762 5761 5760 5759
5792 5791 5789 5787 5785 5783 5781 5779 5778 5776 5774 5772 5771 5769 5768 5766 5765 5765 5764 5764 5764 5763 5762 5762 5761 5761 5760 5760 5760 5760 5760 5760 5759 5759 5758 5758 5757 5756 5755 5755 5754 5753 5752
5786 5785 5783 5781 5779 5777 5775 5774 5772 5770 5769 5767 5765 5764 5762 5761 5760 5759 5758 5758 5757 5756 5756 5755 5754 5754 5753 5753 5753 5752 5752 5752 5752 5751 5751 5750 5749 5749 5748 5748 5747 5746 5745
5780 5778 5777 5775 5773 5771 5769 5768 5766 5764 5763 5761 5759 5758 5757 5755 5754 5753 5752 5752 5751 5750 5749 5748 5748 5747 5747 5746 5746 5745 5745 5745 5744 5744 5743 5742 5742 5741 5740 5740 5739 5739 5738
5773 5772 5770 5769 5767 5765 5763 5762 5760 5758 5757 5755 5753 5752 5751 5750 5748 5747 5746 5745 5744 5743 5742 5742 5741 5740 5739 5739 5738 5737 5737 5736 5735 5735 5734 5734 5733 5733 5732 5731 5731 5730 5729
5767 5765 5764 5762 5760 5758 5757 5755 5754 5752 5750 5749 5747 5746 5744 5743 5742 5741 5739 5738 5737 5736 5735 5734 5733 5733 5732 5731 5730 5729 5728 5727 5727 5726 5725 5725 5724 5724 5723 5723 5722 5721 5720
5760 5758 5757 5756 5754 5752 5750 5749 5748 5746 5744 5743 5741 5739 5738 5736 5735 5734 5732 5731 5730 5729 5728 5727 5726 5725 5724 5723 5722 5721 5719 5718 5718 5717 5716 5716 5715 5714 5714 5714 5713 5712 5711
5753 5751 5750 5749 5747 5745 5744 5742 5741 5739 5738 5736 5734 5732 5731 5729 5728 5726 5725 5724 5723 5722 5721 5719 5718 5717 5716 5715 5713 5712 5711 5710 5708 5708 5707 5706 5706 5705 5704 5704 5703 5702 5701
5745 5744 5743 5742 5740 5738 5737 5735 5734 5732 5731 5729 5727 5726 5724 5722 5721 5719 5718 5717 5716 5714 5713 5711 5710 5709 5708 5706 5704 5703 5702 5700 5699 5698 5698 5697 5696 5696 5695 5694 5694 5693 5691
5737 5736 5735 5734 5733 5731 5730 5728 5726 5725 5723 5722 5720 5718 5716 5715 5713 5712 5711 5709 5708 5707 5705 5703 5702 5700 5699 5697 5695 5694 5693 5691 5690 5689 5688 5688 5687 5686 5685 5685 5684 5683 5682